Location: M.A.R.S.Observatory
(35.4031°N, 81.5481°W)
Time: 04:18:02
(UTC-04:00)

SL-8 R/B - Visible Passes

Search period start: 28 July 2014 00:00
Search period end: 07 August 2014 00:00
Orbit: 659 x 670 km, 48.4° (Epoch: 26 July)

Date Brightness Start Highest point End Pass type
(mag) Time Alt. Az. Time Alt. Az. Time Alt. Az.
29 Jul 6.1 05:43:08 10° SSE 05:46:02 16° SE 05:48:56 10° E visible
31 Jul 5.8 05:03:51 10° S 05:07:02 18° SE 05:10:14 10° E visible
01 Aug 4.4 05:34:24 13° SSW 05:38:30 48° SE 05:43:06 10° ENE visible
02 Aug 5.5 04:26:59 19° SSE 04:28:03 20° SE 04:31:30 10° E visible
02 Aug 3.8 06:05:29 10° WSW 06:10:15 69° NW 06:15:02 10° NE visible
03 Aug 4.1 04:57:33 31° SSW 04:59:32 53° SE 05:04:12 10° ENE visible
04 Aug 5.6 03:50:01 21° ESE 03:50:01 21° ESE 03:52:43 10° E visible
04 Aug 3.9 05:28:03 20° WSW 05:31:19 64° NW 05:36:04 10° NE visible
05 Aug 3.8 04:20:27 58° SSE 04:20:35 59° SE 04:25:17 10° ENE visible
05 Aug 5.0 05:59:06 10° W 06:03:23 32° NNW 06:07:41 10° NE visible
06 Aug 6.1 03:12:49 15° E 03:12:49 15° E 03:13:55 10° ENE visible
06 Aug 4.0 04:50:50 39° W 04:52:23 58° NNW 04:57:07 10° NE visible
